| time (UTC) | temp C | wind direction | speed KPH | gust KPH | rain 1hr cm | rain 24hr cm | rain mn cm | humidity % | barometer mb |
| 20260503184653 | 14 | 219 | 12.9 | 33.8 | 0.00 | 0.00 | 0.00 | 40 | 1013.2 |
| 20260503184144 | 13 | 214 | 14.5 | 33.8 | 0.00 | 0.00 | 0.00 | 39 | 1013.3 |
| 20260503183633 | 13 | 242 | 12.9 | 24.1 | 0.00 | 0.00 | 0.00 | 39 | 1013.3 |
| 20260503183123 | 13 | 223 | 11.3 | 24.1 | 0.00 | 0.00 | 0.00 | 39 | 1013.3 |
| 20260503182613 | 13 | 257 | 11.3 | 32.2 | 0.00 | 0.00 | 0.00 | 38 | 1013.4 |
| 20260503182109 | 13 | 209 | 14.5 | 32.2 | 0.00 | 0.00 | 0.00 | 39 | 1013.4 |
| 20260503181557 | 13 | 198 | 11.3 | 24.1 | 0.00 | 0.00 | 0.00 | 39 | 1013.4 |
| 20260503181047 | 13 | 218 | 11.3 | 24.1 | 0.00 | 0.00 | 0.00 | 38 | 1013.7 |
| 20260503180537 | 13 | 287 | 12.9 | 24.1 | 0.00 | 0.00 | 0.00 | 40 | 1013.7 |
| 20260503180029 | 14 | 220 | 9.7 | 22.5 | 0.00 | 0.00 | 0.00 | 41 | 1013.7 |
| 20260503175523 | 13 | 229 | 6.4 | 22.5 | 0.00 | 0.00 | 0.00 | 40 | 1013.9 |
| 20260503175016 | 13 | 235 | 11.3 | 32.2 | 0.00 | 0.00 | 0.00 | 42 | 1013.9 |
| 20260503174514 | 13 | 242 | 14.5 | 32.2 | 0.00 | 0.00 | 0.00 | 40 | 1013.8 |
| 20260503174008 | 13 | 217 | 11.3 | 24.1 | 0.00 | 0.00 | 0.00 | 44 | 1014.0 |
| 20260503173501 | 13 | 217 | 11.3 | 24.1 | 0.00 | 0.00 | 0.00 | 41 | 1014.0 |
| 20260503172952 | 13 | 235 | 11.3 | 25.7 | 0.00 | 0.00 | 0.00 | 41 | 1014.1 |
| 20260503172443 | 13 | 255 | 12.9 | 25.7 | 0.00 | 0.00 | 0.00 | 40 | 1014.1 |
| 20260503171936 | 13 | 227 | 11.3 | 25.7 | 0.00 | 0.00 | 0.00 | 41 | 1014.1 |
| 20260503171433 | 13 | 314 | 9.7 | 25.7 | 0.00 | 0.00 | 0.00 | 46 | 1014.2 |
| 20260503170928 | 12 | 283 | 11.3 | 25.7 | 0.00 | 0.00 | 0.00 | 44 | 1014.2 |
| 20260503170421 | 12 | 230 | 12.9 | 22.5 | 0.00 | 0.00 | 0.00 | 41 | 1014.1 |
| 20260503160212 | 11 | 260 | 9.7 | 25.7 | 0.00 | 0.00 | 0.00 | 41 | 1014.6 |
| 20260503150648 | 10 | 270 | 12.9 | 29.0 | 0.00 | 0.00 | 0.00 | 44 | 1014.8 |
| 20260503131030 | 5 | 285 | 6.4 | 17.7 | 0.00 | 0.00 | 0.00 | 79 | 1014.9 |
| 20260503130528 | 5 | 286 | 6.4 | 14.5 | 0.00 | 0.00 | 0.00 | 82 | 1014.8 |
| 20260503110810 | 0 | 319 | 0.0 | 1.6 | 0.00 | 0.00 | 0.00 | 94 | 1013.5 |
| 20260503110303 | -1 | 319 | 0.0 | 0.0 | 0.00 | 0.00 | 0.00 | 94 | 1013.5 |
| 20260503090311 | 0 | 319 | 0.0 | 0.0 | 0.00 | 0.00 | 0.00 | 93 | 1012.8 |
| 20260503081611 | 0 | 319 | 0.0 | 0.0 | 0.00 | 0.00 | 0.00 | 92 | 1012.8 |
| 20260503081104 | 0 | 319 | 0.0 | 0.0 | 0.00 | 0.00 | 0.00 | 92 | 1012.8 |
| 20260503080551 | 0 | 319 | 0.0 | 0.0 | 0.00 | 0.00 | 0.00 | 91 | 1012.8 |
| 20260503072814 | 0 | 319 | 0.0 | 0.0 | 0.00 | 0.00 | 0.00 | 90 | 1012.2 |
| 20260503072230 | 0 | 319 | 0.0 | 0.0 | 0.00 | 0.00 | 0.00 | 90 | 1012.2 |
| 20260503071712 | 0 | 319 | 0.0 | 0.0 | 0.00 | 0.00 | 0.00 | 89 | 1012.2 |
| 20260503071209 | 0 | 319 | 0.0 | 0.0 | 0.00 | 0.00 | 0.00 | 89 | 1012.2 |
| 20260503070648 | 0 | 319 | 0.0 | 0.0 | 0.00 | 0.00 | 0.00 | 89 | 1012.2 |
| 20260503070147 | 0 | 319 | 0.0 | 0.0 | 0.00 | 0.00 | 0.00 | 88 | 1012.2 |
| 20260503054220 | 1 | 319 | 0.0 | 0.0 | 0.00 | 0.00 | 0.00 | 83 | 1012.6 |
| 20260503053206 | 1 | 319 | 0.0 | 0.0 | 0.00 | 0.00 | 0.00 | 82 | 1012.6 |
| 20260503051645 | 1 | 319 | 0.0 | 0.0 | 0.00 | 0.00 | 0.00 | 80 | 1012.8 |
| 20260503051108 | 1 | 319 | 0.0 | 0.0 | 0.00 | 0.00 | 0.00 | 80 | 1012.8 |
| 20260503050050 | 2 | 319 | 0.0 | 0.0 | 0.00 | 0.00 | 0.00 | 79 | 1012.8 |
| 20260503045528 | 2 | 319 | 0.0 | 0.0 | 0.00 | 0.00 | 0.00 | 79 | 1012.9 |
| 20260503045017 | 2 | 319 | 0.0 | 0.0 | 0.00 | 0.00 | 0.00 | 79 | 1012.9 |
| 20260503044440 | 2 | 319 | 0.0 | 0.0 | 0.00 | 0.00 | 0.00 | 78 | 1013.0 |
| 20260503043417 | 2 | 319 | 0.0 | 0.0 | 0.00 | 0.00 | 0.00 | 78 | 1013.0 |
| 20260503042901 | 2 | 319 | 0.0 | 0.0 | 0.00 | 0.00 | 0.00 | 78 | 1012.9 |
| 20260503042349 | 2 | 319 | 0.0 | 0.0 | 0.00 | 0.00 | 0.00 | 78 | 1012.9 |
| 20260503041828 | 3 | 319 | 0.0 | 0.0 | 0.00 | 0.00 | 0.00 | 78 | 1013.0 |
| 20260503041326 | 3 | 319 | 0.0 | 0.0 | 0.00 | 0.00 | 0.00 | 78 | 1013.0 |
| 20260503040740 | 3 | 319 | 0.0 | 0.0 | 0.00 | 0.00 | 0.00 | 78 | 1013.0 |
| 20260503040204 | 3 | 319 | 0.0 | 0.0 | 0.00 | 0.00 | 0.00 | 77 | 1013.0 |
| 20260503035702 | 3 | 319 | 0.0 | 0.0 | 0.00 | 0.00 | 0.00 | 77 | 1013.0 |
| 20260503035159 | 3 | 319 | 0.0 | 0.0 | 0.00 | 0.00 | 0.00 | 77 | 1013.0 |
| 20260503034136 | 3 | 319 | 0.0 | 0.0 | 0.00 | 0.00 | 0.00 | 77 | 1013.0 |
| 20260503033627 | 3 | 319 | 0.0 | 0.0 | 0.00 | 0.00 | 0.00 | 77 | 1013.0 |
| 20260503033111 | 4 | 319 | 0.0 | 0.0 | 0.00 | 0.00 | 0.00 | 77 | 1013.0 |
| 20260503032602 | 4 | 319 | 0.0 | 0.0 | 0.00 | 0.00 | 0.00 | 77 | 1013.0 |
| 20260503032022 | 4 | 319 | 0.0 | 0.0 | 0.00 | 0.00 | 0.00 | 76 | 1013.0 |
| 20260503031516 | 4 | 319 | 0.0 | 0.0 | 0.00 | 0.00 | 0.00 | 76 | 1013.0 |
| 20260503031002 | 4 | 319 | 0.0 | 0.0 | 0.00 | 0.00 | 0.00 | 76 | 1013.0 |
| 20260503030500 | 4 | 319 | 0.0 | 0.0 | 0.00 | 0.00 | 0.00 | 76 | 1013.1 |
| 20260503025929 | 4 | 319 | 0.0 | 4.8 | 0.00 | 0.00 | 0.00 | 76 | 1013.1 |
| 20260503025409 | 4 | 319 | 0.0 | 4.8 | 0.00 | 0.00 | 0.00 | 75 | 1013.1 |
| 20260503024900 | 4 | 319 | 0.0 | 4.8 | 0.00 | 0.00 | 0.00 | 75 | 1013.1 |
| 20260503024400 | 4 | 319 | 1.6 | 4.8 | 0.00 | 0.00 | 0.00 | 75 | 1013.2 |
| 20260503023836 | 4 | 319 | 0.0 | 3.2 | 0.00 | 0.00 | 0.00 | 75 | 1013.2 |
| 20260503023337 | 5 | 319 | 0.0 | 1.6 | 0.00 | 0.00 | 0.00 | 75 | 1013.2 |
| 20260503022833 | 5 | 319 | 0.0 | 0.0 | 0.00 | 0.00 | 0.00 | 75 | 1013.1 |
| 20260503022331 | 5 | 319 | 0.0 | 0.0 | 0.00 | 0.00 | 0.00 | 75 | 1013.1 |
| 20260503021814 | 5 | 319 | 0.0 | 4.8 | 0.00 | 0.00 | 0.00 | 75 | 1013.1 |
| 20260503021315 | 5 | 319 | 0.0 | 4.8 | 0.00 | 0.00 | 0.00 | 75 | 1013.3 |
| 20260503015727 | 5 | 319 | 0.0 | 3.2 | 0.00 | 0.00 | 0.00 | 74 | 1013.3 |
| 20260503015216 | 5 | 319 | 0.0 | 0.0 | 0.00 | 0.00 | 0.00 | 74 | 1013.3 |
| 20260503014708 | 5 | 319 | 0.0 | 0.0 | 0.00 | 0.00 | 0.00 | 73 | 1013.3 |
| 20260503014208 | 5 | 319 | 0.0 | 0.0 | 0.00 | 0.00 | 0.00 | 73 | 1013.3 |
| 20260503013138 | 5 | 319 | 0.0 | 0.0 | 0.00 | 0.00 | 0.00 | 73 | 1013.3 |
| 20260503012629 | 5 | 319 | 0.0 | 0.0 | 0.00 | 0.03 | 0.00 | 73 | 1013.3 |
| 20260503012114 | 5 | 319 | 0.0 | 1.6 | 0.00 | 0.03 | 0.00 | 72 | 1013.3 |
| 20260503011607 | 5 | 319 | 0.0 | 3.2 | 0.00 | 0.03 | 0.00 | 72 | 1013.3 |
| 20260503011047 | 5 | 319 | 0.0 | 3.2 | 0.00 | 0.03 | 0.00 | 72 | 1013.4 |
| 20260503010543 | 5 | 319 | 0.0 | 4.8 | 0.00 | 0.03 | 0.00 | 71 | 1013.4 |
| 20260503010021 | 5 | 319 | 1.6 | 6.4 | 0.00 | 0.03 | 0.00 | 71 | 1013.4 |
| 20260503004958 | 5 | 319 | 0.0 | 4.8 | 0.00 | 0.03 | 0.00 | 71 | 1013.1 |
| 20260503004456 | 5 | 319 | 0.0 | 3.2 | 0.00 | 0.03 | 0.00 | 71 | 1012.9 |
| 20260503003943 | 5 | 319 | 1.6 | 4.8 | 0.00 | 0.03 | 0.00 | 71 | 1012.9 |
| 20260503003430 | 5 | 319 | 1.6 | 6.4 | 0.00 | 0.03 | 0.00 | 71 | 1012.9 |
| 20260503002402 | 5 | 319 | 1.6 | 6.4 | 0.00 | 0.03 | 0.00 | 70 | 1012.9 |
| 20260503001844 | 5 | 319 | 0.0 | 3.2 | 0.00 | 0.03 | 0.00 | 70 | 1012.9 |
| 20260503001338 | 5 | 319 | 1.6 | 4.8 | 0.00 | 0.03 | 0.00 | 70 | 1012.9 |
| 20260503000818 | 6 | 319 | 1.6 | 4.8 | 0.00 | 0.03 | 0.00 | 69 | 1012.9 |
| 20260503000306 | 6 | 319 | 1.6 | 6.4 | 0.00 | 0.03 | 0.00 | 69 | 1012.9 |
| 20260502235803 | 6 | 319 | 1.6 | 8.0 | 0.00 | 0.03 | 0.00 | 69 | 1012.9 |
| 20260502235300 | 6 | 319 | 0.0 | 8.0 | 0.00 | 0.03 | 0.00 | 70 | 1012.9 |
| 20260502234750 | 6 | 319 | 0.0 | 3.2 | 0.00 | 0.03 | 0.00 | 70 | 1012.9 |
| 20260502233726 | 6 | 319 | 4.8 | 11.3 | 0.00 | 0.03 | 0.00 | 70 | 1012.4 |
| 20260502233218 | 6 | 319 | 4.8 | 8.0 | 0.00 | 0.03 | 0.00 | 70 | 1012.4 |
| 20260502232711 | 6 | 319 | 3.2 | 11.3 | 0.00 | 0.03 | 0.00 | 70 | 1012.4 |
| 20260502232202 | 6 | 319 | 1.6 | 11.3 | 0.00 | 0.05 | 0.00 | 71 | 1012.4 |
| 20260502231659 | 6 | 319 | 1.6 | 6.4 | 0.00 | 0.05 | 0.00 | 71 | 1012.4 |
| 20260502231158 | 6 | 319 | 1.6 | 6.4 | 0.00 | 0.08 | 0.00 | 71 | 1012.6 |
| 20260502230644 | 6 | 319 | 1.6 | 6.4 | 0.00 | 0.08 | 0.00 | 71 | 1012.6 |
| 20260502230139 | 6 | 319 | 1.6 | 8.0 | 0.00 | 0.08 | 0.00 | 70 | 1012.6 |
| 20260502225629 | 6 | 319 | 4.8 | 17.7 | 0.00 | 0.08 | 0.00 | 70 | 1012.6 |
| 20260502225121 | 6 | 319 | 4.8 | 17.7 | 0.00 | 0.08 | 0.00 | 70 | 1012.6 |
| 20260502224620 | 6 | 319 | 3.2 | 11.3 | 0.00 | 0.08 | 0.00 | 71 | 1012.6 |
| 20260502224113 | 6 | 319 | 6.4 | 16.1 | 0.00 | 0.08 | 0.00 | 71 | 1012.7 |
| 20260502223609 | 6 | 319 | 8.0 | 20.9 | 0.00 | 0.08 | 0.00 | 70 | 1012.7 |
| 20260502223057 | 6 | 319 | 9.7 | 20.9 | 0.00 | 0.08 | 0.00 | 71 | 1012.7 |
| 20260502222552 | 6 | 321 | 6.4 | 30.6 | 0.00 | 0.08 | 0.00 | 70 | 1012.6 |
| 20260502221540 | 6 | 321 | 4.8 | 19.3 | 0.00 | 0.08 | 0.00 | 68 | 1012.7 |
| 20260502221030 | 6 | 321 | 6.4 | 19.3 | 0.00 | 0.08 | 0.00 | 68 | 1012.7 |
| 20260502215509 | 6 | 321 | 4.8 | 11.3 | 0.00 | 0.08 | 0.00 | 68 | 1012.6 |
| 20260502214954 | 6 | 321 | 8.0 | 16.1 | 0.00 | 0.08 | 0.00 | 68 | 1012.6 |
| 20260502214446 | 6 | 321 | 8.0 | 17.7 | 0.00 | 0.08 | 0.00 | 67 | 1012.3 |
| 20260502213946 | 6 | 321 | 6.4 | 17.7 | 0.00 | 0.08 | 0.00 | 67 | 1012.3 |
| 20260502212932 | 7 | 322 | 6.4 | 17.7 | 0.00 | 0.08 | 0.00 | 67 | 1012.1 |
| 20260502212424 | 7 | 321 | 4.8 | 11.3 | 0.00 | 0.08 | 0.00 | 67 | 1012.2 |
| 20260502211917 | 7 | 321 | 8.0 | 24.1 | 0.00 | 0.08 | 0.00 | 67 | 1012.2 |
| 20260502211411 | 7 | 321 | 6.4 | 24.1 | 0.00 | 0.08 | 0.00 | 66 | 1012.1 |
| 20260502210901 | 7 | 324 | 3.2 | 14.5 | 0.00 | 0.08 | 0.00 | 67 | 1012.1 |
| 20260502210400 | 7 | 324 | 3.2 | 14.5 | 0.00 | 0.08 | 0.00 | 69 | 1012.1 |
| 20260502205854 | 7 | 324 | 3.2 | 14.5 | 0.00 | 0.10 | 0.00 | 68 | 1012.1 |
| 20260502205344 | 7 | 324 | 4.8 | 12.9 | 0.00 | 0.13 | 0.00 | 69 | 1012.1 |
| 20260502204837 | 7 | 324 | 4.8 | 16.1 | 0.00 | 0.13 | 0.00 | 69 | 1012.1 |
| 20260502204327 | 7 | 324 | 6.4 | 17.7 | 0.00 | 0.13 | 0.00 | 70 | 1012.1 |
| 20260502203821 | 7 | 324 | 4.8 | 17.7 | 0.00 | 0.13 | 0.00 | 69 | 1012.1 |
| 20260502203311 | 7 | 324 | 1.6 | 6.4 | 0.00 | 0.15 | 0.00 | 69 | 1012.1 |
| 20260502202805 | 7 | 324 | 4.8 | 17.7 | 0.00 | 0.15 | 0.00 | 68 | 1012.2 |
| 20260502202304 | 7 | 324 | 4.8 | 17.7 | 0.00 | 0.15 | 0.00 | 68 | 1012.2 |
| 20260502201753 | 7 | 319 | 3.2 | 11.3 | 0.00 | 0.15 | 0.00 | 70 | 1012.3 |
| 20260502200730 | 7 | 319 | 4.8 | 17.7 | 0.00 | 0.15 | 0.00 | 72 | 1012.4 |
| 20260502200223 | 7 | 319 | 4.8 | 17.7 | 0.00 | 0.15 | 0.00 | 73 | 1012.4 |
| 20260502195214 | 7 | 320 | 1.6 | 11.3 | 0.00 | 0.15 | 0.00 | 74 | 1012.4 |
| 20260502194705 | 7 | 320 | 1.6 | 11.3 | 0.00 | 0.15 | 0.00 | 74 | 1012.4 |
| 20260502194204 | 7 | 320 | 3.2 | 16.1 | 0.00 | 0.15 | 0.00 | 74 | 1012.7 |
| 20260502193155 | 6 | 320 | 6.4 | 19.3 | 0.00 | 0.15 | 0.00 | 72 | 1012.7 |
| 20260502192656 | 6 | 320 | 6.4 | 17.7 | 0.00 | 0.15 | 0.00 | 71 | 1012.6 |
| 20260502192154 | 6 | 320 | 9.7 | 30.6 | 0.00 | 0.15 | 0.00 | 71 | 1012.6 |
| 20260502191651 | 7 | 320 | 9.7 | 30.6 | 0.00 | 0.15 | 0.00 | 70 | 1012.6 |
| 20260502191151 | 7 | 317 | 6.4 | 16.1 | 0.00 | 0.15 | 0.00 | 70 | 1012.7 |
| 20260502190648 | 7 | 317 | 4.8 | 17.7 | 0.00 | 0.15 | 0.00 | 70 | 1012.7 |
| 20260502190143 | 7 | 317 | 3.2 | 16.1 | 0.00 | 0.15 | 0.00 | 69 | 1012.7 |
| 20260502185642 | 7 | 317 | 3.2 | 14.5 | 0.00 | 0.15 | 0.00 | 69 | 1012.7 |
| 20260502185138 | 7 | 317 | 3.2 | 14.5 | 0.00 | 0.15 | 0.00 | 70 | 1012.7 |